Retour au catalogue

STARLINK-11735

ActifCommunicationsVLEO
NORAD 64130·PAYLOAD·🇺🇸 United States

Lancé May 24, 2025 depuis Cape Canaveral Space Force Station

Loading…

Prochains Passages (prochaines 24 heures)

TLE

FraisSource: CelesTrak SupGP

Époque: Sep 15, 2026, 03:44 UTC

1 64130C 25111H   26258.15604167 -.00014869  00000+0 -11542-3 0  2580
2 64130  43.0004 271.8263 0001444 258.7490 224.0847 15.70858820    16

Suivez STARLINK-11735 en temps réel avec AllMySat

Download on the App Store